Regional Weather Roundup
Issued by NWS Cleveland, OH

Home | Current Version | Previous Version | Graphics & Text | Print | Product List | Glossary On
Versions: 1 2 3 4 5 6 7 8 9 10 11 12 13 14 15 16 17 18 19 20 21 22 23 24 25 26 27 28 29 30 31 32 33 34 35 36 37 38 39 40 41 42 43 44 45 46 47 48 49 50
000
ASUS41 KCLE 202200
RWRCLE
OHIO REGIONAL WEATHER ROUNDUP
NATIONAL WEATHER SERVICE WILMINGTON, OH
600 PM EDT FRI APR 20 2018

NOTE: "FAIR" INDICATES FEW OR NO CLOUDS BELOW 12,000 FEET WITH NO
SIGNIFICANT WEATHER AND/OR OBSTRUCTIONS TO VISIBILITY.

OHZ001>008-015>018-024>027-034-035-043-044-202300-
   NORTHWEST OHIO

CITY           SKY/WX    TMP DP  RH WIND       PRES   REMARKS
DEFIANCE       NOT AVBL
FINDLAY        FAIR      58  19  22 N5        30.43S
TOLEDO EXPRESS FAIR      59  17  19 N10       30.43S
TOLEDO EXEC    FAIR      58  23  26 NE7       30.44R
LIMA           FAIR      55  23  28 N8        30.43S
$$

OHZ009>014-019>023-028>033-038-089-202300-
   NORTHEAST OHIO

CITY           SKY/WX    TMP DP  RH WIND       PRES   REMARKS
CLE-HOPKINS    FAIR      49  21  33 N9        30.48S
CLE-LAKEFRONT  FAIR      45  23  42 W6        30.45F
CUY CO. ARPT   MOSUNNY   48  25  40 NW12      30.45F
LORAIN-ELYRIA  FAIR      49  17  28 N7G17     30.46S
ASHTABULA      FAIR      46  21  37 N9G18     30.45R
AKRON-CANTON   FAIR      50  16  25 N9        30.42S
WOOSTER        NOT AVBL
MANSFIELD      FAIR      51  19  28 N9        30.43S
YOUNGSTOWN     FAIR      48  21  34 N9        30.42R
$$

OHZ042-051>053-060>062-070>072-077>081-202300-
  SOUTHWEST OHIO

CITY           SKY/WX    TMP DP  RH WIND       PRES   REMARKS
CINC-COVINGTON FAIR      59  21  23 E8        30.40F
CINC-LUNKEN    FAIR      61  30  31 N7        30.41F
HAMILTON       FAIR      59  25  27 NE7       30.42F
DAYTON         NOT AVBL
WRIGHT-PAT AFB FAIR      58  22  25 NE6       30.42S
DAYTON GENERAL FAIR      59  24  26 N10       30.40F
WILMINGTON     FAIR      58  28  32 N8        30.41S
$$

OHZ036-037-039>041-045>050-054>059-063>069-073>076-082>088-202300-
  CENTRAL AND SOUTHEAST OHIO

CITY           SKY/WX    TMP DP  RH WIND       PRES   REMARKS
COLUMBUS       FAIR      56  22  26 N7        30.41S
OSU AIRPORT    FAIR      56  25  30 N6        30.41F
BOLTON FIELD   SUNNY     55  27  33 NW7       30.42S
RICKENBACK AFB NOT AVBL
NEWARK         FAIR      56  24  29 N8        30.40S
MARION         FAIR      53  21  28 N13       30.43S
LANCASTER      FAIR      56  28  34 N8        30.42S
ZANESVILLE     FAIR      56  22  26 NW5       30.40
NEW PHILLY     FAIR      53  19  26 N13       30.42S
$$



USA.gov is the U.S. government's official web portal to all federal, state and local government web resources and services.